This is the latest recevied weather packets stored in our database for station/object K5FEP. If no packets are shown the sender has not sent any weather packets the latest 10 day(s).
| Time | Temp. | Humidity | Pressure | Rain* | Wind** | Luminosity | Snow |
|---|---|---|---|---|---|---|---|
| 1788132805 | 28.89° C | 64% | 1018.9 hPa | 0 mm | - | 12 W/m² | - |
| 1788132501 | 28.89° C | 63% | 1019 hPa | 0 mm | - | 16 W/m² | - |
| 1788132196 | 28.89° C | 62% | 1018.9 hPa | 0 mm | - | 21 W/m² | - |
| 1788131893 | 29.44° C | 61% | 1019.1 hPa | 0 mm | - | 25 W/m² | - |
| 1788131593 | 30° C | 60% | 1018.9 hPa | 0 mm | - | 28 W/m² | - |
| 1788131287 | 30° C | 57% | 1018.8 hPa | 0 mm | - | 33 W/m² | - |
| 1788130983 | 30.56° C | 56% | 1018.9 hPa | 0 mm | - | 38 W/m² | - |
| 1788130682 | 31.11° C | 53% | 1019 hPa | 0 mm | - | 41 W/m² | - |
| 1788130377 | 31.67° C | 51% | 1018.9 hPa | 0 mm | - | 45 W/m² | - |
| 1788130076 | 31.67° C | 52% | 1018.8 hPa | 0 mm | - | 69 W/m² | - |
| 1788129771 | 31.67° C | 52% | 1018.8 hPa | 0 mm | - | 88 W/m² | - |
| 1788129468 | 31.67° C | 53% | 1018.7 hPa | 0 mm | - | 101 W/m² | - |
| 1788129164 | 31.67° C | 53% | 1018.7 hPa | 0 mm | - | 113 W/m² | - |
| 1788128858 | 32.22° C | 53% | 1018.5 hPa | 0 mm | - | 126 W/m² | - |
| 1788128553 | 32.22° C | 53% | 1018.4 hPa | 0 mm | - | 139 W/m² | - |
| 1788128249 | 32.22° C | 53% | 1018.5 hPa | 0 mm | - | 153 W/m² | - |
| 1788127946 | 31.67° C | 53% | 1018.7 hPa | 0 mm | - | 168 W/m² | - |
| 1788127641 | 31.67° C | 52% | 1018.7 hPa | 0 mm | - | 185 W/m² | - |
| 1788127339 | 31.67° C | 53% | 1018.4 hPa | 0 mm | - | 207 W/m² | - |
| 1788127039 | 31.11° C | 54% | 1018.4 hPa | 0 mm | - | 234 W/m² | - |
| 1788126733 | 31.67° C | 53% | 1018.7 hPa | 0 mm | - | 85 W/m² | - |
| 1788126428 | 32.22° C | 51% | 1018.6 hPa | 0 mm | - | 217 W/m² | - |
| 1788126123 | 31.67° C | 52% | 1018.8 hPa | 0 mm | - | 219 W/m² | - |
| 1788125822 | 31.67° C | 51% | 1018.6 hPa | 0 mm | - | 217 W/m² | - |
| 1788125517 | 32.22° C | 49% | 1018.5 hPa | 0 mm | - | 198 W/m² | - |
* Rain latest hour (hover to see other rain measurements)
** Current wind speed in m/s (hover to see current wind gust speed)